Radiation Dose at Monitoring Post of Fukushima Daini Nuclear Power Station
Date,Time,MP-1(microSv/h),MP-2(microSv/h),MP-3(microSv/h),MP-4(microSv/h),MP-5(microSv/h),MP-6(microSv/h),MP-7(microSv/h),Wind Direction,Wind Velocity(m/s),Rain
2019/07/27,00:00,0.180,0.166,0.277,0.262,0.264,0.138,0.086,south,8.6,No
2019/07/27,00:10,0.182,0.166,0.274,0.263,0.263,0.139,0.086,south,8.8,No
2019/07/27,00:20,0.183,0.164,0.274,0.262,0.264,0.138,0.087,south,9.3,No
2019/07/27,00:30,0.183,0.165,0.277,0.261,0.267,0.139,0.087,south,8.2,No
2019/07/27,00:40,0.182,0.166,0.279,0.260,0.264,0.139,0.086,south,8.1,No
2019/07/27,00:50,0.180,0.165,0.277,0.263,0.263,0.139,0.086,south,8.7,No
2019/07/27,01:00,0.184,0.164,0.274,0.263,0.263,0.139,0.086,south,9.8,No
2019/07/27,01:10,0.185,0.163,0.273,0.261,0.266,0.138,0.086,south,8.8,No
2019/07/27,01:20,0.182,0.166,0.278,0.259,0.265,0.139,0.086,south,9.2,No
2019/07/27,01:30,0.181,0.165,0.279,0.260,0.263,0.140,0.086,south,9.2,No
2019/07/27,01:40,0.181,0.166,0.277,0.263,0.262,0.139,0.086,south,9.2,Yes
2019/07/27,01:50,0.184,0.164,0.273,0.262,0.266,0.138,0.086,south,7.7,Yes
2019/07/27,02:00,0.184,0.165,0.275,0.259,0.266,0.139,0.086,south,8.8,Yes
2019/07/27,02:10,0.181,0.166,0.278,0.259,0.265,0.139,0.086,south,8.6,No
2019/07/27,02:20,0.181,0.165,0.276,0.265,0.261,0.140,0.086,south,7.8,Yes
2019/07/27,02:30,0.184,0.163,0.274,0.262,0.265,0.138,0.087,south,8.8,No
2019/07/27,02:40,0.184,0.165,0.275,0.259,0.266,0.138,0.086,south,9.0,No
2019/07/27,02:50,0.181,0.166,0.280,0.260,0.263,0.139,0.086,south,7.9,No
2019/07/27,03:00,0.182,0.164,0.277,0.263,0.263,0.141,0.086,south,8.4,Yes
2019/07/27,03:10,0.184,0.164,0.274,0.263,0.264,0.139,0.087,south,7.3,Yes
2019/07/27,03:20,0.183,0.166,0.274,0.262,0.267,0.138,0.086,south,7.0,No
2019/07/27,03:30,0.182,0.165,0.279,0.259,0.265,0.139,0.086,south,7.1,No
2019/07/27,03:40,0.184,0.165,0.276,0.261,0.262,0.139,0.087,south-southwest,8.1,No
2019/07/27,03:50,0.184,0.165,0.276,0.264,0.263,0.138,0.085,south,7.3,No
2019/07/27,04:00,0.182,0.167,0.274,0.261,0.267,0.139,0.085,south,7.0,No
2019/07/27,04:10,0.183,0.163,0.275,0.261,0.266,0.139,0.087,south,7.6,No
2019/07/27,04:20,0.182,0.164,0.279,0.260,0.263,0.139,0.087,south,7.8,No
2019/07/27,04:30,0.182,0.165,0.276,0.262,0.262,0.140,0.086,south,7.9,No
2019/07/27,04:40,0.181,0.165,0.274,0.264,0.264,0.139,0.085,south,8.1,No
2019/07/27,04:50,0.184,0.165,0.274,0.259,0.265,0.138,0.087,south,8.1,No
2019/07/27,05:00,0.183,0.164,0.277,0.259,0.264,0.139,0.087,south,8.2,No
2019/07/27,05:10,0.181,0.165,0.280,0.260,0.262,0.140,0.086,south,7.0,No
2019/07/27,05:20,0.182,0.165,0.275,0.263,0.263,0.139,0.086,south,6.5,No
2019/07/27,05:30,0.184,0.164,0.274,0.263,0.266,0.140,0.087,south,6.8,No
2019/07/27,05:40,0.183,0.164,0.274,0.261,0.264,0.138,0.086,south,6.4,No
2019/07/27,05:50,0.181,0.165,0.278,0.259,0.264,0.139,0.086,south,7.3,No
2019/07/27,06:00,0.181,0.166,0.278,0.260,0.262,0.140,0.087,south,7.4,No
2019/07/27,06:10,0.184,0.165,0.276,0.262,0.264,0.139,0.087,south,8.8,No
2019/07/27,06:20,0.182,0.164,0.274,0.262,0.266,0.138,0.086,south,7.7,No
2019/07/27,06:30,0.182,0.165,0.274,0.259,0.264,0.138,0.086,south,7.9,No
2019/07/27,06:40,0.182,0.166,0.278,0.258,0.264,0.139,0.086,south,8.4,No
2019/07/27,06:50,0.184,0.165,0.277,0.261,0.264,0.140,0.086,south,9.5,No
2019/07/27,07:00,0.184,0.165,0.277,0.261,0.262,0.139,0.086,south,9.3,No
2019/07/27,07:10,0.182,0.163,0.276,0.260,0.267,0.139,0.086,south,9.8,No
2019/07/27,07:20,0.182,0.163,0.274,0.259,0.266,0.139,0.086,south,8.2,No
2019/07/27,07:30,0.181,0.165,0.276,0.258,0.264,0.139,0.086,south,7.3,No
2019/07/27,07:40,0.182,0.166,0.279,0.259,0.263,0.138,0.086,south,8.2,No
2019/07/27,07:50,0.184,0.165,0.278,0.263,0.261,0.140,0.086,south,7.3,No
2019/07/27,08:00,0.182,0.165,0.275,0.263,0.263,0.139,0.086,south,7.4,No
2019/07/27,08:10,0.181,0.164,0.274,0.261,0.263,0.139,0.085,south,6.4,No
2019/07/27,08:20,0.182,0.164,0.274,0.260,0.263,0.139,0.086,south,7.0,No
2019/07/27,08:30,0.181,0.166,0.274,0.259,0.265,0.139,0.086,south,7.0,No
2019/07/27,08:40,0.181,0.164,0.275,0.258,0.263,0.139,0.086,south,8.4,No
2019/07/27,08:50,0.181,0.164,0.275,0.260,0.264,0.140,0.086,south,7.9,No
2019/07/27,09:00,0.180,0.165,0.275,0.260,0.263,0.139,0.085,south,7.5,No
2019/07/27,09:10,0.181,0.164,0.276,0.260,0.264,0.139,0.086,south,6.0,No
2019/07/27,09:20,0.181,0.164,0.275,0.260,0.265,0.140,0.086,south,8.2,No
2019/07/27,09:30,0.181,0.166,0.275,0.260,0.265,0.139,0.087,south,9.2,No
2019/07/27,09:40,0.182,0.165,0.275,0.262,0.265,0.140,0.086,south,9.3,No
2019/07/27,09:50,0.182,0.164,0.275,0.260,0.264,0.139,0.086,south,9.2,Yes
2019/07/27,10:00,0.182,0.166,0.275,0.260,0.264,0.140,0.087,south,8.5,Yes
2019/07/27,10:10,0.181,0.165,0.275,0.261,0.264,0.139,0.086,south,8.7,No
2019/07/27,10:20,0.181,0.165,0.275,0.260,0.266,0.139,0.086,south,8.2,No
2019/07/27,10:30,0.182,0.165,0.275,0.261,0.263,0.140,0.086,south,7.6,No
2019/07/27,10:40,0.182,0.166,0.275,0.261,0.265,0.139,0.087,south,8.8,No
2019/07/27,10:50,0.182,0.165,0.276,0.261,0.265,0.140,0.086,south,9.2,No
2019/07/27,11:00,0.182,0.166,0.277,0.260,0.265,0.140,0.086,south-southeast,9.3,No
2019/07/27,11:10,0.182,0.165,0.276,0.262,0.265,0.140,0.086,south-southeast,10.0,No
2019/07/27,11:20,0.182,0.166,0.277,0.262,0.266,0.139,0.086,south-southeast,9.5,No
2019/07/27,11:30,0.182,0.166,0.278,0.261,0.266,0.140,0.086,south,9.5,No
2019/07/27,11:40,0.184,0.167,0.278,0.263,0.266,0.140,0.086,south,9.6,No
2019/07/27,11:50,0.183,0.165,0.278,0.262,0.265,0.140,0.086,south-southeast,9.8,No
2019/07/27,12:00,0.183,0.166,0.277,0.261,0.266,0.140,0.086,south-southeast,9.2,No
2019/07/27,12:10,0.183,0.166,0.277,0.262,0.265,0.139,0.087,south,9.2,No
2019/07/27,12:20,0.183,0.165,0.278,0.262,0.264,0.139,0.086,south-southeast,9.0,No
2019/07/27,12:30,0.182,0.167,0.276,0.262,0.264,0.140,0.086,south-southeast,9.0,Yes
2019/07/27,12:40,0.183,0.166,0.277,0.261,0.264,0.138,0.086,south-southeast,10.1,No
2019/07/27,12:50,0.183,0.166,0.277,0.262,0.264,0.140,0.086,south-southeast,9.6,No
2019/07/27,13:00,0.182,0.165,0.276,0.260,0.265,0.140,0.086,south,9.0,No
2019/07/27,13:10,0.182,0.164,0.277,0.260,0.264,0.140,0.087,south-southeast,9.0,No
2019/07/27,13:20,0.182,0.166,0.276,0.261,0.264,0.139,0.086,south-southeast,9.2,No
2019/07/27,13:30,0.183,0.166,0.276,0.260,0.264,0.139,0.086,south-southeast,10.0,No
2019/07/27,13:40,0.182,0.166,0.277,0.261,0.264,0.139,0.087,south,10.6,No
2019/07/27,13:50,0.182,0.165,0.276,0.261,0.263,0.139,0.088,south,8.8,No
2019/07/27,14:00,0.181,0.165,0.276,0.261,0.264,0.140,0.088,south-southeast,9.2,No
2019/07/27,14:10,0.182,0.164,0.275,0.260,0.264,0.140,0.087,south-southeast,8.1,No
2019/07/27,14:20,0.182,0.164,0.275,0.261,0.264,0.140,0.086,south-southeast,9.5,No
2019/07/27,14:30,0.181,0.165,0.276,0.265,0.265,0.140,0.086,south,8.5,No
2019/07/27,14:40,0.183,0.165,0.279,0.266,0.265,0.139,0.087,south,7.7,No
2019/07/27,14:50,0.185,0.165,0.281,0.263,0.266,0.140,0.086,south,7.3,No
2019/07/27,15:00,0.185,0.165,0.279,0.263,0.264,0.140,0.086,south,7.6,No
2019/07/27,15:10,0.184,0.165,0.279,0.262,0.266,0.139,0.086,south,8.1,No
2019/07/27,15:20,0.184,0.165,0.277,0.262,0.264,0.141,0.086,south,10.0,No
2019/07/27,15:30,0.183,0.165,0.277,0.262,0.265,0.140,0.086,south-southeast,10.1,No
2019/07/27,15:40,0.182,0.166,0.277,0.261,0.265,0.140,0.086,south-southeast,10.1,No
2019/07/27,15:50,0.182,0.166,0.278,0.261,0.266,0.140,0.086,south-southeast,9.8,No
2019/07/27,16:00,0.183,0.166,0.276,0.265,0.265,0.139,0.088,south,9.6,No
2019/07/27,16:10,0.183,0.166,0.279,0.264,0.264,0.141,0.087,south,8.7,No
2019/07/27,16:20,0.183,0.165,0.276,0.263,0.267,0.140,0.086,south-southeast,9.8,No
2019/07/27,16:30,0.183,0.165,0.277,0.262,0.265,0.140,0.086,south-southeast,9.3,No
2019/07/27,16:40,0.183,0.166,0.277,0.261,0.266,0.140,0.086,south-southeast,9.2,No
2019/07/27,16:50,0.183,0.167,0.282,0.263,0.266,0.139,0.087,south-southeast,9.6,No
2019/07/27,17:00,0.182,0.167,0.281,0.265,0.265,0.139,0.086,south-southeast,8.7,No
2019/07/27,17:10,0.183,0.166,0.278,0.264,0.265,0.140,0.086,south,8.6,No
2019/07/27,17:20,0.182,0.165,0.278,0.262,0.265,0.140,0.087,south,9.2,No
2019/07/27,17:30,0.183,0.166,0.277,0.261,0.263,0.141,0.087,south-southeast,10.1,No
2019/07/27,17:40,0.185,0.166,0.279,0.265,0.264,0.140,0.086,south,10.9,No
2019/07/27,17:50,0.183,0.168,0.280,0.265,0.263,0.140,0.086,south,9.6,No
2019/07/27,18:00,0.183,0.166,0.278,0.262,0.263,0.141,0.087,south,8.4,No
2019/07/27,18:10,0.182,0.165,0.276,0.261,0.268,0.140,0.087,south,7.9,No
2019/07/27,18:20,0.185,0.165,0.277,0.262,0.267,0.140,0.087,south,9.8,No
2019/07/27,18:30,0.185,0.168,0.282,0.266,0.267,0.139,0.086,south,7.6,No
2019/07/27,18:40,0.183,0.166,0.280,0.263,0.266,0.140,0.087,south,7.1,No
2019/07/27,18:50,0.184,0.166,0.277,0.263,0.263,0.141,0.087,south,7.4,No
2019/07/27,19:00,0.182,0.165,0.276,0.262,0.264,0.140,0.086,south,6.7,No
2019/07/27,19:10,0.184,0.166,0.276,0.260,0.268,0.139,0.086,south,5.7,No
2019/07/27,19:20,0.186,0.166,0.281,0.264,0.267,0.140,0.087,south-southwest,5.4,No
2019/07/27,19:30,0.184,0.166,0.280,0.264,0.265,0.141,0.087,south-southwest,5.2,No
2019/07/27,19:40,0.182,0.165,0.277,0.262,0.263,0.141,0.086,south-southwest,4.9,No
2019/07/27,19:50,0.182,0.167,0.277,0.262,0.266,0.139,0.086,south-southwest,6.2,No
2019/07/27,20:00,0.185,0.167,0.279,0.262,0.268,0.139,0.086,south-southwest,8.4,No
2019/07/27,20:10,0.185,0.166,0.281,0.265,0.267,0.141,0.088,south,7.7,No
2019/07/27,20:20,0.183,0.165,0.280,0.264,0.265,0.141,0.086,south,8.5,No
2019/07/27,20:30,0.182,0.167,0.278,0.263,0.263,0.141,0.086,south,9.6,No
2019/07/27,20:40,0.181,0.168,0.276,0.261,0.268,0.139,0.087,south,10.1,No
2019/07/27,20:50,0.186,0.166,0.280,0.265,0.266,0.139,0.087,south,9.8,No
2019/07/27,21:00,0.184,0.165,0.281,0.265,0.265,0.140,0.086,south,9.3,No
2019/07/27,21:10,0.182,0.166,0.278,0.264,0.263,0.140,0.087,south,9.5,No
2019/07/27,21:20,0.182,0.168,0.277,0.261,0.266,0.140,0.086,south,9.0,No
2019/07/27,21:30,0.184,0.167,0.279,0.264,0.267,0.140,0.086,south,8.7,No
2019/07/27,21:40,0.185,0.165,0.281,0.265,0.266,0.139,0.087,south,9.0,No
2019/07/27,21:50,0.183,0.167,0.280,0.264,0.264,0.140,0.087,south,8.8,No
2019/07/27,22:00,0.182,0.167,0.276,0.261,0.266,0.140,0.087,south,8.7,No
2019/07/27,22:10,0.184,0.166,0.278,0.262,0.266,0.141,0.087,south,9.0,No
2019/07/27,22:20,0.185,0.166,0.281,0.266,0.265,0.140,0.086,south,8.5,No
2019/07/27,22:30,0.184,0.167,0.280,0.264,0.263,0.140,0.087,south,7.9,No
2019/07/27,22:40,0.181,0.167,0.276,0.261,0.266,0.141,0.087,south,8.4,No
2019/07/27,22:50,0.184,0.165,0.278,0.262,0.268,0.140,0.088,south,7.7,No
2019/07/27,23:00,0.184,0.165,0.281,0.264,0.265,0.140,0.087,south,7.3,No
2019/07/27,23:10,0.182,0.167,0.281,0.265,0.264,0.140,0.086,south,6.5,No
2019/07/27,23:20,0.184,0.168,0.278,0.261,0.264,0.141,0.087,south,7.1,No
2019/07/27,23:30,0.184,0.164,0.275,0.261,0.267,0.141,0.087,south-southwest,6.7,No
2019/07/27,23:40,0.184,0.167,0.280,0.266,0.266,0.139,0.087,south,7.1,No
2019/07/27,23:50,0.183,0.168,0.281,0.265,0.264,0.140,0.086,south,6.8,No
